owner,sensor,date,latitude,longitude,air_temperature,qcFlag 
DISL,ioos:station:DISL:BSCA:1,2012-03-01T00:00:00Z,30.3288,-87.8293,19.34,1111122 
DISL,ioos:station:DISL:BSCA:1,2012-03-01T00:30:00Z,30.3288,-87.8293,19.21,1111122 
DISL,ioos:station:DISL:BSCA:1,2012-03-01T01:00:00Z,30.3288,-87.8293,19.35,1111122 
DISL,ioos:station:DISL:BSCA:1,2012-03-01T01:30:00Z,30.3288,-87.8293,19.35,1111122 
DISL,ioos:station:DISL:BSCA:1,2012-03-01T02:00:00Z,30.3288,-87.8293,19.52,1111122 
DISL,ioos:station:DISL:BSCA:1,2012-03-01T02:30:00Z,30.3288,-87.8293,19.46,1111122 
DISL,ioos:station:DISL:BSCA:1,2012-03-01T03:00:00Z,30.3288,-87.8293,19.25,1111122 
DISL,ioos:station:DISL:BSCA:1,2012-03-01T03:30:00Z,30.3288,-87.8293,19.25,1111122 
DISL,ioos:station:DISL:BSCA:1,2012-03-01T04:00:00Z,30.3288,-87.8293,19.29,1111122 
DISL,ioos:station:DISL:BSCA:1,2012-03-01T04:30:00Z,30.3288,-87.8293,18.95,1111122 
DISL,ioos:station:DISL:BSCA:1,2012-03-01T05:00:00Z,30.3288,-87.8293,19.15,1111122 
DISL,ioos:station:DISL:BSCA:1,2012-03-01T05:30:00Z,30.3288,-87.8293,19.12,1111122 
DISL,ioos:station:DISL:BSCA:1,2012-03-01T06:00:00Z,30.3288,-87.8293,19.39,1111122 
DISL,ioos:station:DISL:BSCA:1,2012-03-01T06:30:00Z,30.3288,-87.8293,19.53,1111122 
DISL,ioos:station:DISL:BSCA:1,2012-03-01T07:00:00Z,30.3288,-87.8293,19.62,1111122 
DISL,ioos:station:DISL:BSCA:1,2012-03-01T07:30:00Z,30.3288,-87.8293,19.22,1111122 
DISL,ioos:station:DISL:BSCA:1,2012-03-01T08:00:00Z,30.3288,-87.8293,19.22,1111122 
DISL,ioos:station:DISL:BSCA:1,2012-03-01T08:30:00Z,30.3288,-87.8293,19.05,1111122 
DISL,ioos:station:DISL:BSCA:1,2012-03-01T09:00:00Z,30.3288,-87.8293,19.02,1111122 
DISL,ioos:station:DISL:BSCA:1,2012-03-01T09:30:00Z,30.3288,-87.8293,18.98,1111122 
DISL,ioos:station:DISL:BSCA:1,2012-03-01T10:00:00Z,30.3288,-87.8293,18.98,1111122 
DISL,ioos:station:DISL:BSCA:1,2012-03-01T10:30:00Z,30.3288,-87.8293,18.64,1111122 
DISL,ioos:station:DISL:BSCA:1,2012-03-01T11:00:00Z,30.3288,-87.8293,18.71,1111122 
DISL,ioos:station:DISL:BSCA:1,2012-03-01T11:30:00Z,30.3288,-87.8293,18.81,1111122 
DISL,ioos:station:DISL:BSCA:1,2012-03-01T12:00:00Z,30.3288,-87.8293,18.41,1111122 
DISL,ioos:station:DISL:BSCA:1,2012-03-01T12:30:00Z,30.3288,-87.8293,18.37,1111122 
DISL,ioos:station:DISL:BSCA:1,2012-03-01T13:00:00Z,30.3288,-87.8293,18.24,1111122 
DISL,ioos:station:DISL:BSCA:1,2012-03-01T13:30:00Z,30.3288,-87.8293,18.14,1111122 
DISL,ioos:station:DISL:BSCA:1,2012-03-01T14:00:00Z,30.3288,-87.8293,18.37,1111122 
DISL,ioos:station:DISL:BSCA:1,2012-03-01T14:30:00Z,30.3288,-87.8293,18.64,1111122 
DISL,ioos:station:DISL:BSCA:1,2012-03-01T15:00:00Z,30.3288,-87.8293,18.81,1111122 
DISL,ioos:station:DISL:BSCA:1,2012-03-01T15:30:00Z,30.3288,-87.8293,19.11,1111122 
DISL,ioos:station:DISL:BSCA:1,2012-03-01T16:00:00Z,30.3288,-87.8293,19.47,1111122 
DISL,ioos:station:DISL:BSCA:1,2012-03-01T16:30:00Z,30.3288,-87.8293,19.78,1111122 
DISL,ioos:station:DISL:BSCA:1,2012-03-01T17:00:00Z,30.3288,-87.8293,20.32,1111122 
DISL,ioos:station:DISL:BSCA:1,2012-03-01T17:30:00Z,30.3288,-87.8293,20.52,1111122 
DISL,ioos:station:DISL:BSCA:1,2012-03-01T18:00:00Z,30.3288,-87.8293,20.52,1111122 
DISL,ioos:station:DISL:BSCA:1,2012-03-01T18:30:00Z,30.3288,-87.8293,20.59,1111122 
DISL,ioos:station:DISL:BSCA:1,2012-03-01T19:00:00Z,30.3288,-87.8293,20.01,1111122 
DISL,ioos:station:DISL:BSCA:1,2012-03-01T19:30:00Z,30.3288,-87.8293,19.8,1111122 
DISL,ioos:station:DISL:BSCA:1,2012-03-01T20:00:00Z,30.3288,-87.8293,19.46,1111122 
DISL,ioos:station:DISL:BSCA:1,2012-03-01T20:30:00Z,30.3288,-87.8293,19.22,1111122 
DISL,ioos:station:DISL:BSCA:1,2012-03-01T21:00:00Z,30.3288,-87.8293,19.3,1111122 
DISL,ioos:station:DISL:BSCA:1,2012-03-01T21:30:00Z,30.3288,-87.8293,19.43,1111122 
DISL,ioos:station:DISL:BSCA:1,2012-03-01T22:00:00Z,30.3288,-87.8293,19.13,1111122 
DISL,ioos:station:DISL:BSCA:1,2012-03-01T22:30:00Z,30.3288,-87.8293,19.13,1111122 
DISL,ioos:station:DISL:BSCA:1,2012-03-01T23:00:00Z,30.3288,-87.8293,19.17,1111122 
DISL,ioos:station:DISL:BSCA:1,2012-03-01T23:30:00Z,30.3288,-87.8293,19.47,1111122 
DISL,ioos:station:DISL:BSCA:1,2012-03-02T00:00:00Z,30.3288,-87.8293,19.51,1111122 
DISL,ioos:station:DISL:BSCA:1,2012-03-02T00:30:00Z,30.3288,-87.8293,19.71,1111122 
DISL,ioos:station:DISL:BSCA:1,2012-03-02T01:00:00Z,30.3288,-87.8293,19.41,1111122 
DISL,ioos:station:DISL:BSCA:1,2012-03-02T01:30:00Z,30.3288,-87.8293,19.14,1111122 
DISL,ioos:station:DISL:BSCA:1,2012-03-02T02:00:00Z,30.3288,-87.8293,19.08,1111122 
DISL,ioos:station:DISL:BSCA:1,2012-03-02T02:30:00Z,30.3288,-87.8293,19.15,1111122 
DISL,ioos:station:DISL:BSCA:1,2012-03-02T03:00:00Z,30.3288,-87.8293,19.15,1111122 
DISL,ioos:station:DISL:BSCA:1,2012-03-02T03:30:00Z,30.3288,-87.8293,19.21,1111122 
DISL,ioos:station:DISL:BSCA:1,2012-03-02T04:00:00Z,30.3288,-87.8293,19.52,1111122 
DISL,ioos:station:DISL:BSCA:1,2012-03-02T04:30:00Z,30.3288,-87.8293,19.89,1111122 
DISL,ioos:station:DISL:BSCA:1,2012-03-02T05:00:00Z,30.3288,-87.8293,19.68,1111122 
DISL,ioos:station:DISL:BSCA:1,2012-03-02T05:30:00Z,30.3288,-87.8293,19.51,1111122 
DISL,ioos:station:DISL:BSCA:1,2012-03-02T06:00:00Z,30.3288,-87.8293,19.48,1111122 
DISL,ioos:station:DISL:BSCA:1,2012-03-02T06:30:00Z,30.3288,-87.8293,19.48,1111122 
DISL,ioos:station:DISL:BSCA:1,2012-03-02T07:00:00Z,30.3288,-87.8293,19.61,1111122 
DISL,ioos:station:DISL:BSCA:1,2012-03-02T07:30:00Z,30.3288,-87.8293,19.72,1111122 
DISL,ioos:station:DISL:BSCA:1,2012-03-02T08:00:00Z,30.3288,-87.8293,19.68,1111122 
DISL,ioos:station:DISL:BSCA:1,2012-03-02T08:30:00Z,30.3288,-87.8293,19.61,1111122 
DISL,ioos:station:DISL:BSCA:1,2012-03-02T09:00:00Z,30.3288,-87.8293,19.61,1111122 
DISL,ioos:station:DISL:BSCA:1,2012-03-02T09:30:00Z,30.3288,-87.8293,19.68,1111122 
DISL,ioos:station:DISL:BSCA:1,2012-03-02T10:00:00Z,30.3288,-87.8293,19.65,1111122 
DISL,ioos:station:DISL:BSCA:1,2012-03-02T10:30:00Z,30.3288,-87.8293,19.68,1111122 
DISL,ioos:station:DISL:BSCA:1,2012-03-02T11:00:00Z,30.3288,-87.8293,20.08,1111122 
DISL,ioos:station:DISL:BSCA:1,2012-03-02T11:30:00Z,30.3288,-87.8293,19.54,1111122 
DISL,ioos:station:DISL:BSCA:1,2012-03-02T12:00:00Z,30.3288,-87.8293,19.51,1111122 
DISL,ioos:station:DISL:BSCA:1,2012-03-02T12:30:00Z,30.3288,-87.8293,19.14,1111122 
DISL,ioos:station:DISL:BSCA:1,2012-03-02T13:00:00Z,30.3288,-87.8293,19.72,1111122 
DISL,ioos:station:DISL:BSCA:1,2012-03-02T13:30:00Z,30.3288,-87.8293,19.89,1111122 
DISL,ioos:station:DISL:BSCA:1,2012-03-02T14:00:00Z,30.3288,-87.8293,20.01,1111122 
DISL,ioos:station:DISL:BSCA:1,2012-03-02T14:30:00Z,30.3288,-87.8293,20.25,1111122 
DISL,ioos:station:DISL:BSCA:1,2012-03-02T15:00:00Z,30.3288,-87.8293,20.49,1111122 
DISL,ioos:station:DISL:BSCA:1,2012-03-02T15:30:00Z,30.3288,-87.8293,21.06,1111122 
DISL,ioos:station:DISL:BSCA:1,2012-03-02T16:00:00Z,30.3288,-87.8293,21.64,1111122 
DISL,ioos:station:DISL:BSCA:1,2012-03-02T16:30:00Z,30.3288,-87.8293,21.74,1111122 
DISL,ioos:station:DISL:BSCA:1,2012-03-02T17:00:00Z,30.3288,-87.8293,21.9,1111122 
DISL,ioos:station:DISL:BSCA:1,2012-03-02T17:30:00Z,30.3288,-87.8293,21.96,1111122 
DISL,ioos:station:DISL:BSCA:1,2012-03-02T18:00:00Z,30.3288,-87.8293,22.13,1111122 
DISL,ioos:station:DISL:BSCA:1,2012-03-02T18:30:00Z,30.3288,-87.8293,22.26,1111122 
DISL,ioos:station:DISL:BSCA:1,2012-03-02T19:00:00Z,30.3288,-87.8293,22.4,1111122 
DISL,ioos:station:DISL:BSCA:1,2012-03-02T19:30:00Z,30.3288,-87.8293,22.57,1111122 
DISL,ioos:station:DISL:BSCA:1,2012-03-02T20:00:00Z,30.3288,-87.8293,22.43,1111122 
DISL,ioos:station:DISL:BSCA:1,2012-03-02T20:30:00Z,30.3288,-87.8293,22.47,1111122 
DISL,ioos:station:DISL:BSCA:1,2012-03-02T21:00:00Z,30.3288,-87.8293,22.2,1111122 
DISL,ioos:station:DISL:BSCA:1,2012-03-02T21:30:00Z,30.3288,-87.8293,21.89,1111122 
DISL,ioos:station:DISL:BSCA:1,2012-03-02T22:00:00Z,30.3288,-87.8293,22.13,1111122 
DISL,ioos:station:DISL:BSCA:1,2012-03-02T22:30:00Z,30.3288,-87.8293,22.07,1111122 
DISL,ioos:station:DISL:BSCA:1,2012-03-02T23:00:00Z,30.3288,-87.8293,21.97,1111122 
DISL,ioos:station:DISL:BSCA:1,2012-03-02T23:30:00Z,30.3288,-87.8293,21.54,1111122 
DISL,ioos:station:DISL:BSCA:1,2012-03-03T00:00:00Z,30.3288,-87.8293,21.64,1111122 
DISL,ioos:station:DISL:BSCA:1,2012-03-03T00:30:00Z,30.3288,-87.8293,21.64,1111122 
DISL,ioos:station:DISL:BSCA:1,2012-03-03T01:00:00Z,30.3288,-87.8293,21.27,1111122 
DISL,ioos:station:DISL:BSCA:1,2012-03-03T01:30:00Z,30.3288,-87.8293,21.23,1111122 
DISL,ioos:station:DISL:BSCA:1,2012-03-03T02:00:00Z,30.3288,-87.8293,21.13,1111122 
DISL,ioos:station:DISL:BSCA:1,2012-03-03T02:30:00Z,30.3288,-87.8293,21.13,1111122 
DISL,ioos:station:DISL:BSCA:1,2012-03-03T03:00:00Z,30.3288,-87.8293,20.93,1111122 
DISL,ioos:station:DISL:BSCA:1,2012-03-03T03:30:00Z,30.3288,-87.8293,20.96,1111122 
DISL,ioos:station:DISL:BSCA:1,2012-03-03T04:00:00Z,30.3288,-87.8293,21.1,1111122 
DISL,ioos:station:DISL:BSCA:1,2012-03-03T04:30:00Z,30.3288,-87.8293,21.06,1111122 
DISL,ioos:station:DISL:BSCA:1,2012-03-03T05:00:00Z,30.3288,-87.8293,20.96,1111122 
DISL,ioos:station:DISL:BSCA:1,2012-03-03T05:30:00Z,30.3288,-87.8293,20.96,1111122 
DISL,ioos:station:DISL:BSCA:1,2012-03-03T06:00:00Z,30.3288,-87.8293,20.79,1111122 
DISL,ioos:station:DISL:BSCA:1,2012-03-03T06:30:00Z,30.3288,-87.8293,20.66,1111122 
DISL,ioos:station:DISL:BSCA:1,2012-03-03T07:00:00Z,30.3288,-87.8293,20.59,1111122 
DISL,ioos:station:DISL:BSCA:1,2012-03-03T07:30:00Z,30.3288,-87.8293,20.89,1111122 
DISL,ioos:station:DISL:BSCA:1,2012-03-03T08:00:00Z,30.3288,-87.8293,20.89,1111122 
DISL,ioos:station:DISL:BSCA:1,2012-03-03T08:30:00Z,30.3288,-87.8293,20.96,1111122 
DISL,ioos:station:DISL:BSCA:1,2012-03-03T09:00:00Z,30.3288,-87.8293,20.79,1111122 
DISL,ioos:station:DISL:BSCA:1,2012-03-03T09:30:00Z,30.3288,-87.8293,20.62,1111122 
DISL,ioos:station:DISL:BSCA:1,2012-03-03T10:00:00Z,30.3288,-87.8293,20.73,1111122 
DISL,ioos:station:DISL:BSCA:1,2012-03-03T10:30:00Z,30.3288,-87.8293,20.76,1111122 
DISL,ioos:station:DISL:BSCA:1,2012-03-03T11:00:00Z,30.3288,-87.8293,20.79,1111122 
DISL,ioos:station:DISL:BSCA:1,2012-03-03T11:30:00Z,30.3288,-87.8293,20.89,1111122 
DISL,ioos:station:DISL:BSCA:1,2012-03-03T12:00:00Z,30.3288,-87.8293,20.76,1111122 
DISL,ioos:station:DISL:BSCA:1,2012-03-03T12:30:00Z,30.3288,-87.8293,20.12,1111122 
DISL,ioos:station:DISL:BSCA:1,2012-03-03T13:00:00Z,30.3288,-87.8293,20.05,1111122 
DISL,ioos:station:DISL:BSCA:1,2012-03-03T13:30:00Z,30.3288,-87.8293,16.93,1111122 
DISL,ioos:station:DISL:BSCA:1,2012-03-03T14:00:00Z,30.3288,-87.8293,16.44,1111122 
DISL,ioos:station:DISL:BSCA:1,2012-03-03T14:30:00Z,30.3288,-87.8293,15.69,1111122 
DISL,ioos:station:DISL:BSCA:1,2012-03-03T15:00:00Z,30.3288,-87.8293,16.1,1111122 
DISL,ioos:station:DISL:BSCA:1,2012-03-03T15:30:00Z,30.3288,-87.8293,15.97,1111122 
DISL,ioos:station:DISL:BSCA:1,2012-03-03T16:00:00Z,30.3288,-87.8293,15.54,1111122 
DISL,ioos:station:DISL:BSCA:1,2012-03-03T16:30:00Z,30.3288,-87.8293,15.07,1111122 
DISL,ioos:station:DISL:BSCA:1,2012-03-03T17:00:00Z,30.3288,-87.8293,15.34,1111122 
DISL,ioos:station:DISL:BSCA:1,2012-03-03T17:30:00Z,30.3288,-87.8293,14.63,1111122 
DISL,ioos:station:DISL:BSCA:1,2012-03-03T18:00:00Z,30.3288,-87.8293,14.02,1111122 
DISL,ioos:station:DISL:BSCA:1,2012-03-03T18:30:00Z,30.3288,-87.8293,13.98,1111122 
DISL,ioos:station:DISL:BSCA:1,2012-03-03T19:00:00Z,30.3288,-87.8293,13.48,1111122 
DISL,ioos:station:DISL:BSCA:1,2012-03-03T19:30:00Z,30.3288,-87.8293,13.68,1111122 
DISL,ioos:station:DISL:BSCA:1,2012-03-03T20:00:00Z,30.3288,-87.8293,13.37,1111122 
DISL,ioos:station:DISL:BSCA:1,2012-03-03T20:30:00Z,30.3288,-87.8293,13.44,1111122 
DISL,ioos:station:DISL:BSCA:1,2012-03-03T21:00:00Z,30.3288,-87.8293,13.65,1111122 
DISL,ioos:station:DISL:BSCA:1,2012-03-03T21:30:00Z,30.3288,-87.8293,13.1,1111122 
DISL,ioos:station:DISL:BSCA:1,2012-03-03T22:00:00Z,30.3288,-87.8293,13.38,1111122 
DISL,ioos:station:DISL:BSCA:1,2012-03-03T22:30:00Z,30.3288,-87.8293,13.38,1111122 
DISL,ioos:station:DISL:BSCA:1,2012-03-03T23:00:00Z,30.3288,-87.8293,13.75,1111122 
DISL,ioos:station:DISL:BSCA:1,2012-03-03T23:30:00Z,30.3288,-87.8293,13.34,1111122 
DISL,ioos:station:DISL:BSCA:1,2012-03-04T00:00:00Z,30.3288,-87.8293,12.63,1111122 
DISL,ioos:station:DISL:BSCA:1,2012-03-04T00:30:00Z,30.3288,-87.8293,12.37,1111122 
DISL,ioos:station:DISL:BSCA:1,2012-03-04T01:00:00Z,30.3288,-87.8293,12.41,1111122 
DISL,ioos:station:DISL:BSCA:1,2012-03-04T01:30:00Z,30.3288,-87.8293,12.2,1111122 
DISL,ioos:station:DISL:BSCA:1,2012-03-04T02:00:00Z,30.3288,-87.8293,12.14,1111122 
DISL,ioos:station:DISL:BSCA:1,2012-03-04T02:30:00Z,30.3288,-87.8293,12.24,1111122 
DISL,ioos:station:DISL:BSCA:1,2012-03-04T03:00:00Z,30.3288,-87.8293,12.31,1111122 
DISL,ioos:station:DISL:BSCA:1,2012-03-04T03:30:00Z,30.3288,-87.8293,12.58,1111122 
DISL,ioos:station:DISL:BSCA:1,2012-03-04T04:00:00Z,30.3288,-87.8293,12.54,1111122 
DISL,ioos:station:DISL:BSCA:1,2012-03-04T04:30:00Z,30.3288,-87.8293,12.34,1111122 
DISL,ioos:station:DISL:BSCA:1,2012-03-04T05:00:00Z,30.3288,-87.8293,12.34,1111122 
DISL,ioos:station:DISL:BSCA:1,2012-03-04T05:30:00Z,30.3288,-87.8293,12.31,1111122 
DISL,ioos:station:DISL:BSCA:1,2012-03-04T06:00:00Z,30.3288,-87.8293,12.17,1111122 
DISL,ioos:station:DISL:BSCA:1,2012-03-04T06:30:00Z,30.3288,-87.8293,11.97,1111122 
DISL,ioos:station:DISL:BSCA:1,2012-03-04T07:00:00Z,30.3288,-87.8293,11.7,1111122 
DISL,ioos:station:DISL:BSCA:1,2012-03-04T07:30:00Z,30.3288,-87.8293,11.56,1111122 
DISL,ioos:station:DISL:BSCA:1,2012-03-04T08:00:00Z,30.3288,-87.8293,11.63,1111122 
DISL,ioos:station:DISL:BSCA:1,2012-03-04T08:30:00Z,30.3288,-87.8293,11.76,1111122 
DISL,ioos:station:DISL:BSCA:1,2012-03-04T09:00:00Z,30.3288,-87.8293,11.63,1111122 
DISL,ioos:station:DISL:BSCA:1,2012-03-04T09:30:00Z,30.3288,-87.8293,11.83,1111122 
DISL,ioos:station:DISL:BSCA:1,2012-03-04T10:00:00Z,30.3288,-87.8293,11.9,1111122 
DISL,ioos:station:DISL:BSCA:1,2012-03-04T10:30:00Z,30.3288,-87.8293,11.32,1111122 
DISL,ioos:station:DISL:BSCA:1,2012-03-04T11:00:00Z,30.3288,-87.8293,10.92,1111122 
DISL,ioos:station:DISL:BSCA:1,2012-03-04T11:30:00Z,30.3288,-87.8293,10.51,1111122 
DISL,ioos:station:DISL:BSCA:1,2012-03-04T12:00:00Z,30.3288,-87.8293,10.54,1111122 
DISL,ioos:station:DISL:BSCA:1,2012-03-04T12:30:00Z,30.3288,-87.8293,10.55,1111122 
DISL,ioos:station:DISL:BSCA:1,2012-03-04T13:00:00Z,30.3288,-87.8293,10.41,1111122 
DISL,ioos:station:DISL:BSCA:1,2012-03-04T13:30:00Z,30.3288,-87.8293,10.41,1111122 
DISL,ioos:station:DISL:BSCA:1,2012-03-04T14:00:00Z,30.3288,-87.8293,10.68,1111122 
DISL,ioos:station:DISL:BSCA:1,2012-03-04T14:30:00Z,30.3288,-87.8293,11.02,1111122 
DISL,ioos:station:DISL:BSCA:1,2012-03-04T15:00:00Z,30.3288,-87.8293,11.42,1111122 
DISL,ioos:station:DISL:BSCA:1,2012-03-04T15:30:00Z,30.3288,-87.8293,11.87,1111122 
DISL,ioos:station:DISL:BSCA:1,2012-03-04T16:00:00Z,30.3288,-87.8293,12.5,1111122 
DISL,ioos:station:DISL:BSCA:1,2012-03-04T16:30:00Z,30.3288,-87.8293,12.49,1111122 
DISL,ioos:station:DISL:BSCA:1,2012-03-04T17:00:00Z,30.3288,-87.8293,12.73,1111122 
DISL,ioos:station:DISL:BSCA:1,2012-03-04T17:30:00Z,30.3288,-87.8293,12.97,1111122 
DISL,ioos:station:DISL:BSCA:1,2012-03-04T18:00:00Z,30.3288,-87.8293,13.88,1111122 
DISL,ioos:station:DISL:BSCA:1,2012-03-04T18:30:00Z,30.3288,-87.8293,14.36,1111122 
DISL,ioos:station:DISL:BSCA:1,2012-03-04T19:00:00Z,30.3288,-87.8293,15.58,1111122 
DISL,ioos:station:DISL:BSCA:1,2012-03-04T19:30:00Z,30.3288,-87.8293,15.71,1111122 
DISL,ioos:station:DISL:BSCA:1,2012-03-04T20:00:00Z,30.3288,-87.8293,16.04,1111122 
DISL,ioos:station:DISL:BSCA:1,2012-03-04T20:30:00Z,30.3288,-87.8293,16.2,1111122 
DISL,ioos:station:DISL:BSCA:1,2012-03-04T21:00:00Z,30.3288,-87.8293,16.61,1111122 
DISL,ioos:station:DISL:BSCA:1,2012-03-04T21:30:00Z,30.3288,-87.8293,16.78,1111122 
DISL,ioos:station:DISL:BSCA:1,2012-03-04T22:00:00Z,30.3288,-87.8293,16.03,1111122 
DISL,ioos:station:DISL:BSCA:1,2012-03-04T22:30:00Z,30.3288,-87.8293,16.17,1111122 
DISL,ioos:station:DISL:BSCA:1,2012-03-04T23:00:00Z,30.3288,-87.8293,16.68,1111122 
DISL,ioos:station:DISL:BSCA:1,2012-03-04T23:30:00Z,30.3288,-87.8293,16.47,1111122 
DISL,ioos:station:DISL:BSCA:1,2012-03-05T00:00:00Z,30.3288,-87.8293,16.17,1111122 
DISL,ioos:station:DISL:BSCA:1,2012-03-05T00:30:00Z,30.3288,-87.8293,16.44,1111122 
DISL,ioos:station:DISL:BSCA:1,2012-03-05T01:00:00Z,30.3288,-87.8293,16.52,1111122 
DISL,ioos:station:DISL:BSCA:1,2012-03-05T01:30:00Z,30.3288,-87.8293,16.73,1111122 
DISL,ioos:station:DISL:BSCA:1,2012-03-05T02:00:00Z,30.3288,-87.8293,16.93,1111122 
DISL,ioos:station:DISL:BSCA:1,2012-03-05T02:30:00Z,30.3288,-87.8293,16.83,1111122 
DISL,ioos:station:DISL:BSCA:1,2012-03-05T03:00:00Z,30.3288,-87.8293,16.93,1111122 
DISL,ioos:station:DISL:BSCA:1,2012-03-05T03:30:00Z,30.3288,-87.8293,16.96,1111122 
DISL,ioos:station:DISL:BSCA:1,2012-03-05T04:00:00Z,30.3288,-87.8293,17.0,1111122 
DISL,ioos:station:DISL:BSCA:1,2012-03-05T04:30:00Z,30.3288,-87.8293,17.0,1111122 
DISL,ioos:station:DISL:BSCA:1,2012-03-05T05:00:00Z,30.3288,-87.8293,16.8,1111122 
DISL,ioos:station:DISL:BSCA:1,2012-03-05T05:30:00Z,30.3288,-87.8293,16.66,1111122 
DISL,ioos:station:DISL:BSCA:1,2012-03-05T06:00:00Z,30.3288,-87.8293,16.63,1111122 
DISL,ioos:station:DISL:BSCA:1,2012-03-05T06:30:00Z,30.3288,-87.8293,16.53,1111122 
DISL,ioos:station:DISL:BSCA:1,2012-03-05T07:00:00Z,30.3288,-87.8293,16.49,1111122 
DISL,ioos:station:DISL:BSCA:1,2012-03-05T07:30:00Z,30.3288,-87.8293,16.12,1111122 
DISL,ioos:station:DISL:BSCA:1,2012-03-05T08:00:00Z,30.3288,-87.8293,16.15,1111122 
DISL,ioos:station:DISL:BSCA:1,2012-03-05T08:30:00Z,30.3288,-87.8293,15.95,1111122 
DISL,ioos:station:DISL:BSCA:1,2012-03-05T09:00:00Z,30.3288,-87.8293,15.61,1111122 
DISL,ioos:station:DISL:BSCA:1,2012-03-05T09:30:00Z,30.3288,-87.8293,15.54,1111122 
DISL,ioos:station:DISL:BSCA:1,2012-03-05T10:00:00Z,30.3288,-87.8293,15.34,1111122 
DISL,ioos:station:DISL:BSCA:1,2012-03-05T10:30:00Z,30.3288,-87.8293,15.31,1111122 
DISL,ioos:station:DISL:BSCA:1,2012-03-05T11:00:00Z,30.3288,-87.8293,15.34,1111122 
DISL,ioos:station:DISL:BSCA:1,2012-03-05T11:30:00Z,30.3288,-87.8293,15.54,1111122 
DISL,ioos:station:DISL:BSCA:1,2012-03-05T12:00:00Z,30.3288,-87.8293,15.37,1111122 
DISL,ioos:station:DISL:BSCA:1,2012-03-05T12:30:00Z,30.3288,-87.8293,15.48,1111122 
DISL,ioos:station:DISL:BSCA:1,2012-03-05T13:00:00Z,30.3288,-87.8293,15.51,1111122 
DISL,ioos:station:DISL:BSCA:1,2012-03-05T13:30:00Z,30.3288,-87.8293,15.54,1111122 
DISL,ioos:station:DISL:BSCA:1,2012-03-05T14:00:00Z,30.3288,-87.8293,15.34,1111122 
DISL,ioos:station:DISL:BSCA:1,2012-03-05T14:30:00Z,30.3288,-87.8293,15.21,1111122 
DISL,ioos:station:DISL:BSCA:1,2012-03-05T15:00:00Z,30.3288,-87.8293,15.17,1111122 
DISL,ioos:station:DISL:BSCA:1,2012-03-05T15:30:00Z,30.3288,-87.8293,15.51,1111122 
DISL,ioos:station:DISL:BSCA:1,2012-03-05T16:00:00Z,30.3288,-87.8293,15.67,1111122 
DISL,ioos:station:DISL:BSCA:1,2012-03-05T16:30:00Z,30.3288,-87.8293,15.93,1111122 
DISL,ioos:station:DISL:BSCA:1,2012-03-05T17:00:00Z,30.3288,-87.8293,16.37,1111122 
DISL,ioos:station:DISL:BSCA:1,2012-03-05T17:30:00Z,30.3288,-87.8293,16.81,1111122 
DISL,ioos:station:DISL:BSCA:1,2012-03-05T18:00:00Z,30.3288,-87.8293,17.32,1111122 
DISL,ioos:station:DISL:BSCA:1,2012-03-05T18:30:00Z,30.3288,-87.8293,17.79,1111122 
DISL,ioos:station:DISL:BSCA:1,2012-03-05T19:00:00Z,30.3288,-87.8293,18.66,1111122 
DISL,ioos:station:DISL:BSCA:1,2012-03-05T19:30:00Z,30.3288,-87.8293,18.96,1111122 
DISL,ioos:station:DISL:BSCA:1,2012-03-05T20:00:00Z,30.3288,-87.8293,18.86,1111122 
DISL,ioos:station:DISL:BSCA:1,2012-03-05T20:30:00Z,30.3288,-87.8293,18.42,1111122 
DISL,ioos:station:DISL:BSCA:1,2012-03-05T21:00:00Z,30.3288,-87.8293,18.59,1111122 
DISL,ioos:station:DISL:BSCA:1,2012-03-05T21:30:00Z,30.3288,-87.8293,18.42,1111122 
DISL,ioos:station:DISL:BSCA:1,2012-03-05T22:00:00Z,30.3288,-87.8293,18.25,1111122 
DISL,ioos:station:DISL:BSCA:1,2012-03-05T22:30:00Z,30.3288,-87.8293,17.95,1111122 
DISL,ioos:station:DISL:BSCA:1,2012-03-05T23:00:00Z,30.3288,-87.8293,17.84,1111122 
DISL,ioos:station:DISL:BSCA:1,2012-03-05T23:30:00Z,30.3288,-87.8293,17.78,1111122 
DISL,ioos:station:DISL:BSCA:1,2012-03-06T00:00:00Z,30.3288,-87.8293,17.49,1111122 
DISL,ioos:station:DISL:BSCA:1,2012-03-06T00:30:00Z,30.3288,-87.8293,17.42,1111122 
DISL,ioos:station:DISL:BSCA:1,2012-03-06T01:00:00Z,30.3288,-87.8293,17.69,1111122 
DISL,ioos:station:DISL:BSCA:1,2012-03-06T01:30:00Z,30.3288,-87.8293,17.32,1111122 
DISL,ioos:station:DISL:BSCA:1,2012-03-06T02:00:00Z,30.3288,-87.8293,16.35,1111122 
DISL,ioos:station:DISL:BSCA:1,2012-03-06T02:30:00Z,30.3288,-87.8293,15.95,1111122 
DISL,ioos:station:DISL:BSCA:1,2012-03-06T03:00:00Z,30.3288,-87.8293,16.76,1111122 
DISL,ioos:station:DISL:BSCA:1,2012-03-06T03:30:00Z,30.3288,-87.8293,16.49,1111122 
DISL,ioos:station:DISL:BSCA:1,2012-03-06T04:00:00Z,30.3288,-87.8293,15.65,1111122 
DISL,ioos:station:DISL:BSCA:1,2012-03-06T04:30:00Z,30.3288,-87.8293,14.76,1111122 
DISL,ioos:station:DISL:BSCA:1,2012-03-06T05:00:00Z,30.3288,-87.8293,14.8,1111122 
DISL,ioos:station:DISL:BSCA:1,2012-03-06T05:30:00Z,30.3288,-87.8293,14.39,1111122 
DISL,ioos:station:DISL:BSCA:1,2012-03-06T06:00:00Z,30.3288,-87.8293,14.15,1111122 
DISL,ioos:station:DISL:BSCA:1,2012-03-06T06:30:00Z,30.3288,-87.8293,13.61,1111122 
DISL,ioos:station:DISL:BSCA:1,2012-03-06T07:00:00Z,30.3288,-87.8293,13.05,1111122 
DISL,ioos:station:DISL:BSCA:1,2012-03-06T07:30:00Z,30.3288,-87.8293,12.51,1111122 
DISL,ioos:station:DISL:BSCA:1,2012-03-06T08:00:00Z,30.3288,-87.8293,12.1,1111122 
DISL,ioos:station:DISL:BSCA:1,2012-03-06T08:30:00Z,30.3288,-87.8293,11.87,1111122 
DISL,ioos:station:DISL:BSCA:1,2012-03-06T09:00:00Z,30.3288,-87.8293,11.49,1111122 
DISL,ioos:station:DISL:BSCA:1,2012-03-06T09:30:00Z,30.3288,-87.8293,11.59,1111122 
DISL,ioos:station:DISL:BSCA:1,2012-03-06T10:00:00Z,30.3288,-87.8293,11.26,1111122 
DISL,ioos:station:DISL:BSCA:1,2012-03-06T10:30:00Z,30.3288,-87.8293,10.78,1111122 
DISL,ioos:station:DISL:BSCA:1,2012-03-06T11:00:00Z,30.3288,-87.8293,10.51,1111122 
DISL,ioos:station:DISL:BSCA:1,2012-03-06T11:30:00Z,30.3288,-87.8293,10.21,1111122 
DISL,ioos:station:DISL:BSCA:1,2012-03-06T12:00:00Z,30.3288,-87.8293,9.94,1111122 
DISL,ioos:station:DISL:BSCA:1,2012-03-06T12:30:00Z,30.3288,-87.8293,9.77,1111122 
DISL,ioos:station:DISL:BSCA:1,2012-03-06T13:00:00Z,30.3288,-87.8293,9.98,1111122 
DISL,ioos:station:DISL:BSCA:1,2012-03-06T13:30:00Z,30.3288,-87.8293,10.52,1111122 
DISL,ioos:station:DISL:BSCA:1,2012-03-06T14:00:00Z,30.3288,-87.8293,12.14,1111122 
DISL,ioos:station:DISL:BSCA:1,2012-03-06T14:30:00Z,30.3288,-87.8293,14.78,1111122 
DISL,ioos:station:DISL:BSCA:1,2012-03-06T15:00:00Z,30.3288,-87.8293,15.14,1111122 
DISL,ioos:station:DISL:BSCA:1,2012-03-06T15:30:00Z,30.3288,-87.8293,15.41,1111122 
DISL,ioos:station:DISL:BSCA:1,2012-03-06T16:00:00Z,30.3288,-87.8293,15.82,1111122 
DISL,ioos:station:DISL:BSCA:1,2012-03-06T16:30:00Z,30.3288,-87.8293,15.92,1111122 
DISL,ioos:station:DISL:BSCA:1,2012-03-06T17:00:00Z,30.3288,-87.8293,16.14,1111122 
DISL,ioos:station:DISL:BSCA:1,2012-03-06T17:30:00Z,30.3288,-87.8293,16.31,1111122 
DISL,ioos:station:DISL:BSCA:1,2012-03-06T18:00:00Z,30.3288,-87.8293,16.54,1111122 
DISL,ioos:station:DISL:BSCA:1,2012-03-06T18:30:00Z,30.3288,-87.8293,16.64,1111122 
DISL,ioos:station:DISL:BSCA:1,2012-03-06T19:00:00Z,30.3288,-87.8293,16.78,1111122 
DISL,ioos:station:DISL:BSCA:1,2012-03-06T19:30:00Z,30.3288,-87.8293,17.05,1111122 
DISL,ioos:station:DISL:BSCA:1,2012-03-06T20:00:00Z,30.3288,-87.8293,17.08,1111122 
DISL,ioos:station:DISL:BSCA:1,2012-03-06T20:30:00Z,30.3288,-87.8293,17.32,1111122 
DISL,ioos:station:DISL:BSCA:1,2012-03-06T21:00:00Z,30.3288,-87.8293,17.39,1111122 
DISL,ioos:station:DISL:BSCA:1,2012-03-06T21:30:00Z,30.3288,-87.8293,17.41,1111122 
DISL,ioos:station:DISL:BSCA:1,2012-03-06T22:00:00Z,30.3288,-87.8293,17.61,1111122 
DISL,ioos:station:DISL:BSCA:1,2012-03-06T22:30:00Z,30.3288,-87.8293,17.81,1111122 
DISL,ioos:station:DISL:BSCA:1,2012-03-06T23:00:00Z,30.3288,-87.8293,17.71,1111122 
DISL,ioos:station:DISL:BSCA:1,2012-03-06T23:30:00Z,30.3288,-87.8293,17.48,1111122 